Location: Darmstadt
(49.8706°N, 8.6494°E)
Time: 06:02:29
(UTC+01:00)

PSLV R/B - Pass Details

Date: 31 October 2020
Orbit: 567 x 599 km, 98.2° (Epoch: 03 December)

Event Time Altitude Azimuth Distance (km) Brightness Sun altitude
Rises 18:44:28 0° 15° (NNE) 2,841 7.3 -16.7°
Reaches altitude 10° 18:46:40 10° 17° (NNE) 1,930 6.4 -17.0°
Maximum altitude 18:50:51 78° 103° (ESE) 606 3.8 -17.7°
Drops below altitude 10° 18:54:58 10° 191° (S) 1,894 6.7 -18.4°
Sets 18:57:06 0° 192° (SSW) 2,783 7.6 -18.7°
